Flag for India Weather past 2 weeks in Nãgpur, Maharashtra, India

Now
108 °F

Scattered clouds.


Feels Like: 106 °F
Forecast: 86 / 109 °F
Wind: 3 mph from West

Location: Nagpur Sonegaon


UV Index: 10 (Very high)

Visibility: 3 mi


Pressure: 29.62 "Hg

Humidity: 17%

Dew point: 54 °F

Location of NãgpurLocation

Historic Weather in Nãgpur

°F

Nãgpur temperature yesterday

Maximum temperature yesterday: 109 °F (at 2:40 PM)
Minimum temperature yesterday: 73 °F (at 6:40 AM)
Average temperature yesterday: 95 °F

Past Weeks' High & Low Weather Summary

 TemperatureHumidityPressure
High111 °F (Apr 7, 1:40 PM)84% (Apr 14, 6:40 PM)29.95 "Hg (Apr 14, 6:40 PM)
Low68 °F (Apr 10, 5:40 AM)9% (Apr 12, 12:40 PM)29.62 "Hg (Apr 13, 1:40 PM)
Average91 °F28%29.82 "Hg
* Reported Apr 2 4:40 PM — Apr 17 4:40 PM, Nãgpur, Weather by CustomWeather, © 2014

Note: Actual official high and low records may vary slightly from our data, if they occured in-between our weather recording intervals... More about our weather records

Advertising

Historic Weather Conditions — Data for Previous 24 hours

 ConditionsComfort  
Time TempWeatherWind HumidityBarometerVisibility
4:40 PM
Apr 17
108 °FScattered clouds.3 mph17%29.62 "Hg3 mi
3:40 PM104 °FScattered clouds.13 mph19%29.65 "Hg3 mi
1:40 PM109 °FHaze.6 mph19%29.71 "Hg3 mi
12:40 PM108 °FHaze.5 mph20%29.74 "Hg3 mi
11:40 AM104 °FHaze.5 mph26%29.77 "Hg3 mi
10:40 AM99 °FHaze.5 mph31%29.80 "Hg3 mi
9:40 AM95 °FHaze.7 mph34%29.80 "Hg3 mi
8:40 AM88 °FHaze.8 mph46%29.80 "Hg3 mi
7:40 AM82 °FHaze.2 mph51%29.80 "Hg3 mi
6:40 AM77 °FHaze.3 mph57%29.77 "Hg3 mi
12:40 AM82 °FHaze.2 mph45%29.77 "Hg3 mi
11:40 PM
Apr 16
84 °FHaze.2 mph43%29.77 "Hg3 mi
10:40 PM84 °FPassing clouds.2 mph40%29.77 "Hg3 mi
9:40 PM86 °FHaze.2 mph38%29.74 "Hg3 mi
8:40 PM88 °FPassing clouds.2 mph35%29.74 "Hg3 mi
7:40 PM90 °FHaze.3 mph33%29.71 "Hg3 mi
Weather by CustomWeather, © 2014

See weather overview